Flag for Switzerland Weather past 2 weeks in Kriens, Lucerne, Switzerland

Now
50 °F

Cool.


Feels Like: 50 °F
Forecast: 40 / 64 °F
Wind: 1 mph from Southwest

Location: Giswil

Current Time: May 26, 2015 at 4:01:53 AM

Latest Report: May 26, 2015 at 3:00 AM


Visibility: N/A

Pressure: 30.00 "Hg

Humidity: 99%

Dew point: 50 °F

Location of KriensLocation

Historic Weather in Kriens — Graph

°F

Kriens temperature yesterday

Maximum temperature yesterday: 63 °F (at 2:00 PM)
Minimum temperature yesterday: 51 °F (at 6:00 AM)
Average temperature yesterday: 55 °F

Past Weeks' High & Low Weather Summary

 TemperatureHumidityPressure
High80 °F (May 12, 3:00 PM)100% (May 22, 6:00 AM)30.35 "Hg (May 22, 6:00 AM)
Low40 °F (May 15, 2:00 PM)33% (May 12, 2:00 PM)29.73 "Hg (May 18, 7:00 PM)
Average56 °F78%30.08 "Hg
* Reported May 11 2:00 AM — May 26 2:00 AM, Kriens, Weather by CustomWeather, © 2015

Note: Actual official high and low records may vary slightly from our data, if they occured in-between our weather recording intervals... More about our weather records

Advertising

Kriens weather history for previous 24 hours

 ConditionsComfort  
Time TempWeatherWind HumidityBarometerVisibility
2:00 AM
Tue, May 26
50 °FCool.1 mph97%30.01 "HgN/A
1:00 AM51 °FCool.1 mph98%30.01 "HgN/A
12:00 AM51 °FCool.1 mph98%30.02 "HgN/A
10:00 PM
Mon, May 25
52 °FCool.2 mph96%30.02 "HgN/A
9:00 PM53 °FCool.2 mph93%30.00 "HgN/A
8:00 PM54 °FCool.1 mph95%29.99 "HgN/A
7:00 PM55 °FCool.1 mph94%29.97 "HgN/A
6:00 PM56 °FCool.1 mph94%29.97 "HgN/A
5:00 PM60 °FCool.1 mph76%29.94 "HgN/A
4:00 PM60 °FCool.1 mph77%29.93 "HgN/A
3:00 PM62 °FCool.1 mph67%29.93 "HgN/A
2:00 PM63 °FMild.3 mph60%29.93 "HgN/A
1:00 PM61 °FCool.1 mph72%29.98 "HgN/A
12:00 PM59 °FCool.2 mph72%30.00 "HgN/A
11:00 AM58 °FCool.2 mph77%30.01 "HgN/A
10:00 AM56 °FCool.2 mph85%30.02 "HgN/A
9:00 AM54 °FCool.No wind92%30.03 "HgN/A
8:00 AM52 °FCool.No wind99%30.04 "HgN/A
7:00 AM51 °FCool.1 mph99%30.05 "HgN/A
6:00 AM51 °FCool.2 mph99%30.05 "HgN/A
5:40 AM51 °FCool.No wind99%30.05 "HgN/A
4:00 AM52 °FCool.No wind99%30.05 "HgN/A
Weather by CustomWeather, © 2015

See weather overviewHow to use our weather pages